Location: Harburg
(48.7667°N, 10.6667°E)
Time: 06:09:14
(UTC+00:00)

SPOT 5 - Pass Details

Date: 18 September 2020
Orbit: 623 x 814 km, 98.3° (Epoch: 22 October)

Event Time Altitude Azimuth Distance (km) Brightness Sun altitude
Exits shadow 20:40:08 48° 11° (N) 1,033 3.7 -30.1°
Drops below altitude 10° 20:44:03 10° 351° (N) 2,392 6.2 -30.6°
Sets 20:46:26 0° 349° (NNW) 3,340 7.1 -30.9°
